{"data":{"norad_id":59096,"intl_designator":"2024-041Y","name":"STARLINK-31291","alt_names":[],"object_type":"PAYLOAD","status":"ACTIVE","operator":null,"country":"US","launch_date":"2024-02-29","launch_site_code":"AFETR","launch_vehicle":null,"mission":null,"orbit_class":"UNKNOWN","rcs_meters":null,"size_class":null,"mass_kg":null,"dimensions":null,"purposes":["comms"],"wikipedia_slug":null,"has_3d_model":false,"image_url":null,"decayed_at":null,"tle_current":{"epoch":"2026-09-19T08:58:07.256640Z","epoch_age_seconds":256171,"freshness":"STALE","line1":"1 59096U 24041Y   26262.37369510  .00000469  00000+0  26560-4 0  9993","line2":"2 59096  43.0035 296.8174 0001436 270.4311  89.6376 15.27579862143891","mean_motion":15.27579862,"eccentricity":0.0001436,"inclination_deg":43.0035,"raan_deg":296.8174,"arg_perigee_deg":270.4311,"mean_anomaly_deg":89.6376,"bstar":2.656e-5,"rev_number":14389,"period_min":94.266757229613,"perigee_km":482.0642428786,"apogee_km":484.03477564406,"semimajor_km":6861.1865092613,"source":"CELESTRAK","updated_at":"2026-09-21T09:00:34.037646Z"}}}